Weather History for Rolla, MO

Change the Weather History Date:

Sunday, March 2, 2014

  Actual Average Record
Temperature  
Mean Temperature 13 °F 40 °F  
Max Temperature 23 °F 51 °F 77 °F (1992)
Min Temperature 3 °F 30 °F 0 °F (1992)
Degree Days  
Heating Degree Days 52 25  
Month to date heating degree days 83 50  
Since 1 July heating degree days 4389 3840  
Cooling Degree Days 0 0  
Month to date cooling degree days 0 0  
Year to date cooling degree days 0 0  
Moisture  
Dew Point 7 °F    
Average Humidity 80    
Maximum Humidity 92    
Minimum Humidity 68    
Precipitation  
Precipitation T in 0.08 in 1.34 in (1948)
Month to date precipitation T 0.16  
Year to date precipitation 1.46 4.26  
Sea Level Pressure  
Sea Level Pressure 30.29 in    
Wind  
Wind Speed 15 mph (North)    
Max Wind Speed 21 mph    
Max Gust Speed 28 mph    
Visibility 4 miles    
Events Fog , Rain , Snow    
T = Trace of Precipitation, MM = Missing Value Source: NWS Daily Summary

Daily Weather History Graph

Daily Weather History Graph

Search for Another Location

Airport:

Trip Planner

Search our weather history database for the weather conditions in past years. The results will help you decide how hot, cold, wet, or windy it might be!

Date:

Astronomy

Mar. 02, 2014 Rise Set
Actual Time 6:37 AM CST 6:01 PM CST
Civil Twilight 6:11 AM CST 6:27 PM CST
Nautical Twilight 5:40 AM CST 6:58 PM CST
Astronomical Twilight 5:09 AM CST 7:29 PM CST
Moon 7:10 AM CST (3/2) 7:55 PM CST (3/2)
Length of Visible Light 12h 16m
Length of Day
11h 24m
Waxing Crescent, 3% of the Moon is Illuminated
Mar 2
Waxing Crescent
Mar 8
First Quarter
Mar 16
Full
Mar 23
Last Quarter
Mar 30
New

Hourly Weather History & Observations

Time (CST) Temp. Windchill Dew Point Humidity Pressure Visibility Wind Dir Wind Speed Gust Speed Precip Events Conditions
12:05 AM 23.0 °F 10.6 °F 21.0 °F 92% 30.18 in 4.0 mi NNE 13.8 mph - 0.00 in   Overcast
12:53 AM 23.0 °F 9.6 °F 19.9 °F 88% 30.21 in 6.0 mi NNE 16.1 mph - 0.00 in   Overcast
1:47 AM 21.2 °F 8.3 °F 19.4 °F 93% 30.17 in 5.0 mi North 13.8 mph - 0.00 in Rain Light Freezing Rain
1:53 AM 21.0 °F 7.1 °F 19.0 °F 92% 30.19 in 5.0 mi NNE 16.1 mph - 0.00 in Rain Light Freezing Rain
2:08 AM 19.9 °F 5.7 °F 19.0 °F 96% 30.16 in 2.5 mi North 16.1 mph - 0.00 in Snow Light Snow
2:27 AM 19.9 °F 5.7 °F 18.0 °F 92% 30.17 in 1.2 mi North 16.1 mph - 0.00 in Snow Light Snow
2:37 AM 19.9 °F 7.9 °F 18.0 °F 92% 30.17 in 1.0 mi North 11.5 mph - 0.00 in Snow Light Snow
2:53 AM 19.9 °F 6.2 °F 17.1 °F 89% 30.22 in 0.5 mi North 15.0 mph - 0.00 in Fog , Snow Light Snow
3:15 AM 19.0 °F 6.1 °F 16.0 °F 88% 30.18 in 0.8 mi North 12.7 mph - 0.00 in   Mist
3:27 AM 19.0 °F 4.0 °F 16.0 °F 88% 30.18 in 1.0 mi North 17.3 mph - 0.00 in Snow Light Snow
3:34 AM 18.0 °F 4.2 °F 15.1 °F 88% 30.18 in 1.0 mi North 13.8 mph - 0.00 in Snow Light Snow
3:53 AM 16.0 °F 0.1 °F 12.9 °F 88% 30.23 in 1.2 mi North 17.3 mph - 0.00 in   Overcast
4:38 AM 14.0 °F -2.0 °F 10.9 °F 88% 30.19 in 2.0 mi NNE 16.1 mph - 0.00 in Snow Light Snow
4:47 AM 14.0 °F -0.8 °F 10.4 °F 86% 30.19 in 3.0 mi NNE 13.8 mph - 0.00 in Snow Light Snow
4:48 AM 14.0 °F -0.8 °F 10.9 °F 88% 30.24 in 3.0 mi North 13.8 mph - 0.00 in Snow Light Snow
4:53 AM 14.0 °F -0.8 °F 10.9 °F 88% 30.19 in 2.0 mi North 13.8 mph 20.7 mph 0.00 in Snow Blowing Snow
5:01 AM 14.0 °F -0.2 °F 10.9 °F 88% 30.20 in 1.2 mi North 12.7 mph - 0.00 in Snow Blowing Snow
5:10 AM 14.0 °F -1.4 °F 10.9 °F 88% 30.21 in 1.8 mi North 15.0 mph - 0.00 in Snow Blowing Snow
5:28 AM 14.0 °F -0.2 °F 10.9 °F 88% 30.23 in 1.2 mi North 12.7 mph - 0.00 in Snow Light Snow
5:53 AM 12.9 °F -2.2 °F 10.0 °F 88% 30.29 in 1.2 mi North 13.8 mph - 0.00 in Snow Light Snow
6:53 AM 10.9 °F -7.0 °F 7.0 °F 84% 30.31 in 3.0 mi North 18.4 mph - 0.00 in Snow Light Snow
7:04 AM 10.9 °F -6.5 °F 7.0 °F 84% 30.28 in 5.0 mi North 17.3 mph - 0.00 in Snow Light Snow
7:24 AM 10.9 °F -4.1 °F 7.0 °F 84% 30.29 in 1.8 mi North 12.7 mph - 0.00 in Snow Light Snow
7:43 AM 10.0 °F -7.6 °F 5.0 °F 80% 30.30 in 3.0 mi North 17.3 mph - 0.00 in Snow Light Snow
7:53 AM 10.0 °F -6.5 °F 5.0 °F 80% 30.35 in 7.0 mi North 15.0 mph - 0.00 in   Overcast
8:29 AM 10.0 °F -5.2 °F 6.1 °F 84% 30.32 in 2.5 mi North 12.7 mph - 0.00 in Snow Light Snow
8:40 AM 10.0 °F -6.5 °F 5.0 °F 80% 30.31 in 1.8 mi North 15.0 mph - 0.00 in Snow Light Snow
8:51 AM 10.4 °F -5.4 °F 6.8 °F 85% 30.31 in 1.2 mi North 13.8 mph - 0.00 in Snow Light Snow
8:53 AM 10.0 °F -6.5 °F 6.1 °F 84% 30.36 in 1.2 mi North 15.0 mph - 0.00 in Snow Light Snow
9:05 AM 10.0 °F -7.1 °F 6.1 °F 84% 30.31 in 1.2 mi North 16.1 mph - 0.00 in Snow Light Snow
9:12 AM 9.0 °F -5.9 °F 5.0 °F 84% 30.32 in 2.0 mi North 11.5 mph - 0.00 in Snow Light Snow
9:23 AM 10.0 °F -7.1 °F 6.1 °F 84% 30.33 in 3.0 mi North 16.1 mph - 0.00 in Snow Light Snow
9:53 AM 10.0 °F -7.1 °F 6.1 °F 84% 30.37 in 2.5 mi North 16.1 mph - 0.00 in Snow Light Snow
10:01 AM 10.0 °F -5.9 °F 6.1 °F 84% 30.31 in 4.0 mi North 13.8 mph 24.2 mph 0.00 in   Overcast
10:44 AM 10.0 °F -6.5 °F 6.1 °F 84% 30.32 in 4.0 mi North 15.0 mph - 0.00 in Snow Light Snow
10:53 AM 10.0 °F -4.5 °F 6.1 °F 84% 30.38 in 2.5 mi North 11.5 mph - 0.00 in Snow Light Snow
11:03 AM 10.9 °F -4.7 °F 6.1 °F 81% 30.31 in 1.8 mi North 13.8 mph - 0.00 in Snow Light Snow
11:14 AM 10.0 °F -7.6 °F 6.1 °F 84% 30.31 in 3.0 mi North 17.3 mph - 0.00 in Snow Light Snow
11:30 AM 10.9 °F -5.9 °F 6.1 °F 81% 30.30 in 10.0 mi North 16.1 mph - 0.00 in   Overcast
11:53 AM 10.9 °F -4.1 °F 6.1 °F 81% 30.37 in 6.0 mi North 12.7 mph - 0.00 in   Haze
12:41 PM 10.9 °F -2.6 °F 7.0 °F 84% 30.31 in 3.0 mi North 10.4 mph - 0.00 in Snow Light Snow
12:53 PM 10.9 °F -5.9 °F 6.1 °F 81% 30.35 in 4.0 mi North 16.1 mph - 0.00 in Snow Light Snow
1:53 PM 10.9 °F -5.9 °F 7.0 °F 84% 30.34 in 4.0 mi North 16.1 mph - 0.00 in Snow Light Snow
2:53 PM 10.9 °F -6.5 °F 6.1 °F 81% 30.32 in 3.0 mi North 17.3 mph - 0.00 in Snow Light Snow
3:31 PM 10.0 °F -5.9 °F 3.9 °F 76% 30.28 in 8.0 mi North 13.8 mph - 0.00 in   Overcast
3:53 PM 10.0 °F -5.9 °F 3.9 °F 76% 30.36 in 7.0 mi North 13.8 mph - 0.00 in   Overcast
4:21 PM 9.0 °F -9.5 °F 3.0 °F 77% 30.30 in 10.0 mi North 18.4 mph - N/A   Overcast
4:53 PM 9.0 °F -6.6 °F 3.0 °F 77% 30.38 in 10.0 mi North 12.7 mph - N/A   Overcast
5:10 PM 8.1 °F -7.0 °F 3.0 °F 80% 30.31 in 6.0 mi North 11.5 mph - 0.00 in Snow Light Snow
5:53 PM 7.0 °F -9.8 °F 1.9 °F 80% 30.40 in 6.0 mi North 13.8 mph - 0.00 in   Overcast
6:13 PM 7.0 °F -8.3 °F 1.9 °F 80% 30.31 in 2.5 mi North 11.5 mph - 0.00 in Snow Light Snow
6:19 PM 6.1 °F -10.9 °F 1.9 °F 83% 30.31 in 1.8 mi North 13.8 mph - 0.00 in Snow Light Snow
6:53 PM 6.1 °F -11.6 °F 1.0 °F 80% 30.38 in 1.8 mi North 15.0 mph - 0.00 in Snow Light Snow
7:44 PM 3.9 °F -16.1 °F -0.0 °F 84% 30.28 in 2.0 mi North 18.4 mph 24.2 mph 0.00 in Snow Light Snow
7:53 PM 3.9 °F -16.6 °F -0.0 °F 84% 30.34 in 2.5 mi North 19.6 mph 25.3 mph 0.00 in Snow Light Snow
8:45 PM 3.9 °F -16.1 °F -0.9 °F 80% 30.29 in 3.0 mi North 18.4 mph - 0.00 in Snow Light Snow
8:53 PM 3.9 °F -14.3 °F -0.9 °F 80% 30.37 in 4.0 mi North 15.0 mph - 0.00 in Snow Light Snow
9:53 PM 5.0 °F -13.0 °F -5.1 °F 63% 30.41 in 10.0 mi North 15.0 mph 23.0 mph 0.00 in   Overcast
10:53 PM 3.9 °F -15.6 °F -6.0 °F 64% 30.40 in 10.0 mi North 17.3 mph - N/A   Overcast
11:53 PM 3.0 °F -16.7 °F -6.0 °F 66% 30.38 in 10.0 mi North 17.3 mph - N/A   Overcast